Regional Weather Roundup
Issued by NWS

Home | Current Version | Previous Version | Text Only | Print | Product List | Glossary Off
Versions: 1 2 3 4 5 6 7 8 9 10 11 12 13 14 15 16 17 18 19 20 21 22 23 24 25 26 27 28 29 30 31 32 33 34 35 36 37 38 39 40 41 42 43 44 45 46 47 48 49 50

000
ASUS43 KIND 241709
RWRIN

WEATHER ROUNDUP FOR INDIANA
NATIONAL WEATHER SERVICE INDIANAPOLIS IN
1200 PM EST TUE JAN 24 2017

NOTE: "FAIR" INDICATES FEW OR NO CLOUDS BELOW 12,000 FEET WITH NO
SIGNIFICANT WEATHER AND/OR OBSTRUCTIONS TO VISIBILITY.

* - STATION DOES NOT REPORT WEATHER SUCH AS PRECIPITATION OR FOG.

+ - STATION NOT QUALITY CONTROLLED BY THE NATIONAL WEATHER SERVICE.
    USE DATA WITH CAUTION...ESPECIALLY DEWPOINT AND RELATIVE
    HUMIDITY OBSERVATIONS.

INZ001>003-010>013-019-020-241800-
NORTHWEST INDIANA

CITY           SKY/WX    TMP DP  RH WIND       PRES   REMARKS
GARY /AIRPORT/ CLOUDY    39  32  75 NW5       29.90S
KNOX *+        CLOUDY    37  19  48 N8        29.87F
LA PORTE +     CLOUDY    36  33  91 NW8       29.88F
MICHIGAN CITY+ CLOUDY    36  36 100 N7        29.88F
MONTICELLO +   CLOUDY    39  32  77 NW3       29.88F
RENSSELAER +   CLOUDY    37  34  87 N5        29.89S
VALPARAISO     CLOUDY    39  35  86 N5        29.88F

$$

LMZ046-743>745-241800-
SOUTHERN LAKE MICHIGAN

STATION/POSITION TIME  TEMP    WIND        PRES    WAVE
                       AIR SEA DIR/SP/G            HT
                 (UTC) (F)     (DEG/KT/KT) (MB)    (FT)
BURNS HARBOR     1640   35     330/  5/  6 1012.9S

$$

INZ004-005-014>016-021>024-241800-
NORTH CENTRAL INDIANA

CITY           SKY/WX    TMP DP  RH WIND       PRES   REMARKS
ELKHART        CLOUDY    39  32  75 W9        29.85F
GOSHEN         CLOUDY    39  32  76 NW14      29.85S
LOGANSPORT +   CLOUDY    37  32  81 N8        29.88F
PERU/GRISSOM   CLOUDY    40  35  80 NW7       29.85F
ROCHESTER +    CLOUDY    41  34  75 NW9       29.87F
SOUTH BEND     CLOUDY    38  33  82 NW10      29.86F
WARSAW +       CLOUDY    37  32  81 NW12      29.85F

$$

INZ006>009-017-018-025>027-241800-
NORTHEAST INDIANA

CITY           SKY/WX    TMP DP  RH WIND       PRES   REMARKS
ANGOLA *+      CLOUDY    37  28  70 NW8       29.81F
AUBURN +       CLOUDY    39  32  75 NW12G17   29.83F
FORT WAYNE     CLOUDY    41  34  76 NW10      29.84F
HUNTINGTON +   CLOUDY    39  34  80 NW7       29.85F
KENDALLVILLE + CLOUDY    38  35  87 NW9       29.83F

$$

INZ028-029-035-036-043>045-051>053-241800-
WEST CENTRAL INDIANA

CITY           SKY/WX    TMP DP  RH WIND       PRES   REMARKS
CRAWFORDSVL +  CLOUDY    37  35  90 CALM      29.90R
GREENCASTLE +  CLOUDY    39  32  75 CALM      29.90F
LAFAYETTE      CLOUDY    39  34  82 NW7       29.90S
TERRE HAUTE    CLOUDY    41  33  73 W3        29.92S

$$

INZ030>032-037>040-046>048-054>057-064-065-241800-
CENTRAL INDIANA

CITY           SKY/WX    TMP DP  RH WIND       PRES   REMARKS
ANDERSON       CLOUDY    39  34  81 NW12      29.87F
CP ATTERBURY + CLOUDY    41  34  75 NW3       29.90F
COLUMBUS       CLOUDY    41  37  87 NW5       29.90F
FISHERS *+     CLOUDY    37  36  93 CALM      29.88
FRANKFORT +    CLOUDY    41  35  78 NW6       29.89F
GREENWOOD *+   CLOUDY    41  35  80 NW3       29.89F
INDIANAPOLIS   CLOUDY    40  33  76 NW8       29.89S
-EAGLE CREEK   CLOUDY    41  32  70 W7        29.88S
KOKOMO +       CLOUDY    40  34  79 NW10      29.88
MARION +       CLOUDY    39  32  75 NW8       29.86F
MT COMFORT *+  CLOUDY    39  34  81 MISG      29.88F
SHELBYVILLE    CLOUDY    41  33  73 NW9       29.88F
ZIONSVILLE +   CLOUDY    38  33  81 N7        29.88F

$$

INZ033-034-041-042-049-050-058-059-241800-
EAST CENTRAL INDIANA

CITY           SKY/WX    TMP DP  RH WIND       PRES   REMARKS
MUNCIE         CLOUDY    41  34  76 NW10      29.86F

$$

INZ060-061-067>069-081>083-085>088-241800-
SOUTHWEST INDIANA

CITY           SKY/WX    TMP DP  RH WIND       PRES   REMARKS
EVANSVILLE     CLOUDY    43  34  70 E6        29.92F
HUNTINGBURG *+ CLOUDY    42  34  73 SE5       29.92F
WASHINGTON +   CLOUDY    41  32  70 SW3       29.91F

$$

INZ062-063-066-070>080-084-089>092-241800-
SOUTH CENTRAL AND SOUTHEAST INDIANA

CITY           SKY/WX    TMP DP  RH WIND       PRES   REMARKS
BEDFORD +      CLOUDY    41  32  70 CALM      29.91
BLOOMINGTON    CLOUDY    41  32  70 CALM      29.90F
MADISON *+     CLOUDY    41  32  70 NW6       29.92S
NORTH VERNON + CLOUDY    41  36  81 NW10      29.91R
SEYMOUR +      CLOUDY    45  34  65 W6        29.91

$$





USA.gov is the U.S. government's official web portal to all federal, state and local government web resources and services.